Regional Weather Roundup
Issued by NWS Albany, NY

Home | Current Version | Previous Version | Graphics & Text | Print | Product List | Glossary Off
Versions: 1 2 3 4 5 6 7 8 9 10 11 12 13 14 15 16 17 18 19 20 21 22 23 24 25 26 27

000
ASUS41 KALY 190710
RWRALY

NEW YORK STATE HOURLY WEATHER ROUNDUP
NATIONAL WEATHER SERVICE ALBANY NY
200 AM EST MON FEB 19 2018

NOTE: "FAIR" INDICATES FEW OR NO CLOUDS BELOW 12,000 FEET WITH NO
SIGNIFICANT WEATHER AND/OR NO OBSTRUCTIONS TO VISIBILITY.

NYZ032-033-038>043-046>054-057>066-NYZ062>081-082-084-190800-
EAST


CITY           SKY/WX    TMP DP  RH WIND       PRES   REMARKS
ALBANY         FAIR      28  19  69 S7        30.46F WCI  21
GLENS FALLS    FAIR      17  15  92 CALM      30.44F
POUGHKEEPSIE   FAIR      22  19  89 CALM      30.50S
NEWBURGH       CLEAR     27  23  86 CALM      30.49S
MONTGOMERY     FAIR      20  17  88 CALM      30.49S
WHITE PLAINS   FAIR      29  23  78 E3        30.50S
ISLIP          FAIR      30  23  75 E3        30.53S
NEW YORK CITY  FAIR      34  29  82 E6        30.53S WCI  29
CENTRAL PARK   FAIR      37  24  59 VRB5      30.54S WCI  33
$$

NYZ005>009-017-018-044>046-055-056-190800-
CENTRAL


CITY           SKY/WX    TMP DP  RH WIND       PRES   REMARKS
FULTON         FAIR      30  20  66 SE6       30.30F WCI  24
SYRACUSE       MOCLDY    30  22  72 E9        30.32S WCI  22
ROME           FAIR      28  19  69 E9        30.38F WCI  19
ELMIRA         FAIR      26  23  88 CALM      30.32F
BINGHAMTON     FAIR      27  20  75 SE10      30.32F WCI  17
MONTICELLO     FAIR      22  18  85 E5        30.44R WCI  16
$$

NYZ026>034-041>043-087-190800-
NORTH


CITY           SKY/WX    TMP DP  RH WIND       PRES   REMARKS
WATERTOWN      FAIR      34  22  61 S8        30.30S WCI  27
FORT DRUM      NOT AVBL
OGDENSBURG     FAIR      30  24  78 S5        30.29F WCI  26
MASSENA        FAIR      26  22  84 CALM      30.32F
SARANAC LAKE   FLURRIES  21  19  92 MISG      30.29F
PLATTSBURGH    FAIR      28  20  71 S7        30.39F WCI  21
$$

NYZ001>004-010>016-019>021-085-190800-
WEST


CITY           SKY/WX    TMP DP  RH WIND       PRES   REMARKS
NIAGARA FALLS  FAIR      31  22  69 SE9       30.17F WCI  23
BUFFALO        MOCLDY    32  23  69 SE6       30.18F WCI  26
DUNKIRK        FAIR      39  25  57 S12G18    30.16F WCI  32
JAMESTOWN        N/A    N/A N/A N/A MISG        N/A
WELLSVILLE     FAIR      33  24  69 S14G22    30.21F WCI  23
ROCHESTER      CLOUDY    32  22  66 SE3       30.23F
PENN YAN       FAIR      30  21  69 S8        30.26F WCI  22
$$

             KEY
       WCI = WIND CHILL INDEX
       VSB = VISIBILITY
       HX  = HEAT INDEX
$$




USA.gov is the U.S. government's official web portal to all federal, state and local government web resources and services.